DELTA 1 DEB

Satellite information

Favourite Embed

Satellite Type and Status

DEBRISIN ORBIT

Key statistics

Satellite DELTA 1 DEB at a glance.

Uptime

18290

Days in orbit

Revolutions

≈ 12.8

Per day

Orbit

SSO

Sun Synchronous Orbit

Inclination

99.7

Latest

Satellite identification and parameters

Extended collection of information and parameters for DELTA 1 DEB.

Object identification

Identified? True

Debris? True

Object name: DELTA 1 DEB

International designator: 1975-052DZ

Object number (NORAD): 21441

Object ID (CCSDS): 21441

Country: UNITED STATES OF AMERICA (US)

Current information (Y/N): Y

RCS size: SMALL

Orbital parameters

Period: 112.132 minutes

Inclination: 99.6699 deg

SMA: 7702.783 km

Apoapsis: 1558.212 km

Periapsis: 1091.083 km

RAAN: 348.4886 deg

Eccentricy: 0.0303221

Argument of periapsis: 188.5146 deg

Mean anomaly: 328.2911 deg

Mean motion: 12.84195982 rev/day

Mean motion (dot): 0.00000046 rev/day2

B* drag term: 0.00027901 1/REarth

Two-line elements (TLE)

Creation date: July 7, 2025, 10:26 p.m.

Reference frame: TEME

Reference center: EARTH

Epoch: July 7, 2025, 9:46 p.m. UTC

TLE line 0: 0 DELTA 1 DEB

TLE line 1: 1 21441U 75052DZ 25188.90748084 .00000046 00000-0 27901-3 0 9997

TLE line 2: 2 21441 99.6699 348.4886 0303221 188.5146 328.2911 12.84195982601627

Live tracking on map

Real-time ground track for satellite DELTA 1 DEB.

In-orbit conjunctions

A list of the most updated potential collisions computed for object DELTA 1 DEB.

Target Orbit TCA Probability of collision Miss distance Type
COSMOS 738 LEO 2025-01-04 20:31:25 0.0002561603 295.0 (m) PAYLOAD
COSMOS 533 LEO 2024-06-04 05:29:18 0.0121005 38.0 (m) PAYLOAD

Associated space launch

Experimental meteorological satellite

DELTA 1 DEB was lifted into orbit during the mission ‘Delta 2910 | Nimbus 6’, on board a Delta 2910 space rocket.

The launch took place on June 12, 1975, 8:12 a.m. from Space Launch Complex 2W.

For more information about the launch, click the button.

Launch to space Delta 2910 | Nimbus 6
Delta 2910 | Nimbus 6

Agency: N/A

Status: Launch Successful

Launch date: June 12, 1975, 8:12 a.m. UTC

Rocket: Delta 2910

Launch pad: Space Launch Complex 2W

Location: Vandenberg SFB, CA, USA

...

Latest news about this satellite

There are no fresh news available about this satellite. Check back as we update our databases every day.


Newsletter sign-up

Weekly statistics, charts and insights to help you stay on top of the space industry.